When you browse on this site, cookies collect data to enhance your experience and personalize the content and advertising you see.
Visit our Privacy Policy to learn more. By continuing to use the site, you agree to this use of cookies and data.
  • In France
  • List of Countries
  • For 7 days
  • Water Temperature
  • Weather Map
  • Weather Widgets
  • user-avatar
    Login

    Hourly Weather Aylesbury

    Today, 22 November, Friday

    Time Temperature Precipitation Wind Pressure Humidity
    00:00 +6°C° 0.6 mm 4 mps 740 mmHg 96%
    01:00 +6°C° 0.3 mm 4 mps 739 mmHg 96%
    02:00 +6°C° 0.3 mm 4 mps 739 mmHg 95%
    03:00 +6°C° 0.3 mm 4 mps 738 mmHg 95%
    04:00 +5°C° 0.2 mm 4 mps 738 mmHg 95%
    05:00 +5°C° 0.2 mm 3 mps 738 mmHg 94%
    06:00 +4°C° 0.2 mm 3 mps 738 mmHg 94%
    07:00 +5°C° 0 mm 4 mps 738 mmHg 93%
    08:00 +5°C° 0 mm 4 mps 738 mmHg 92%
    09:00 +5°C° 0 mm 4 mps 738 mmHg 92%
    10:00 +6°C° 0 mm 5 mps 739 mmHg 88%
    11:00 +7°C° 0 mm 5 mps 739 mmHg 84%
    12:00 +8°C° 0 mm 5 mps 739 mmHg 80%
    13:00 +8°C° 0.3 mm 5 mps 739 mmHg 83%
    14:00 +7°C° 0.3 mm 5 mps 738 mmHg 86%
    15:00 +7°C° 0.3 mm 5 mps 738 mmHg 89%
    16:00 +7°C° 0.1 mm 5 mps 738 mmHg 89%
    17:00 +7°C° 0.1 mm 5 mps 738 mmHg 88%
    18:00 +6°C° 0.1 mm 5 mps 738 mmHg 87%
    19:00 +6°C° 0 mm 5 mps 738 mmHg 87%
    20:00 +6°C° 0 mm 5 mps 738 mmHg 86%
    21:00 +5°C° 0 mm 6 mps 737 mmHg 86%
    22:00 +7°C° 0 mm 6 mps 737 mmHg 86%
    23:00 +6°C° 0 mm 7 mps 737 mmHg 87%

    Tomorrow, 23 November, Saturday

    Time Temperature Precipitation Wind Pressure Humidity
    00:00 +6°C° 0 mm 7 mps 736 mmHg 87%
    01:00 +6°C° 0.2 mm 7 mps 736 mmHg 88%
    02:00 +6°C° 0.2 mm 7 mps 736 mmHg 88%
    03:00 +6°C° 0.2 mm 7 mps 735 mmHg 89%
    04:00 +7°C° 0.3 mm 6 mps 735 mmHg 89%
    05:00 +7°C° 0.3 mm 6 mps 735 mmHg 90%
    06:00 +7°C° 0.3 mm 6 mps 735 mmHg 90%
    07:00 +7°C° 0.1 mm 6 mps 735 mmHg 90%
    08:00 +7°C° 0.1 mm 6 mps 736 mmHg 90%
    09:00 +7°C° 0.1 mm 5 mps 736 mmHg 90%
    10:00 +8°C° 0.4 mm 5 mps 736 mmHg 91%
    11:00 +8°C° 0.4 mm 6 mps 736 mmHg 92%
    12:00 +8°C° 0.4 mm 6 mps 736 mmHg 92%
    13:00 +8°C° 0.4 mm 6 mps 736 mmHg 93%
    14:00 +8°C° 0.4 mm 5 mps 737 mmHg 93%
    15:00 +8°C° 0.4 mm 5 mps 737 mmHg 93%
    16:00 +8°C° 0.2 mm 5 mps 737 mmHg 91%
    17:00 +8°C° 0.2 mm 5 mps 738 mmHg 89%
    18:00 +8°C° 0.2 mm 6 mps 738 mmHg 86%
    19:00 +7°C° 0 mm 5 mps 739 mmHg 87%
    20:00 +7°C° 0 mm 4 mps 739 mmHg 88%
    21:00 +8°C° 0 mm 3 mps 740 mmHg 89%
    22:00 +8°C° 0 mm 3 mps 740 mmHg 91%
    23:00 +7°C° 0 mm 3 mps 741 mmHg 93%

    Day after tomorrow, 24 November, Sunday

    Time Temperature Precipitation Wind Pressure Humidity
    00:00 +7°C° 0 mm 2 mps 741 mmHg 95%
    01:00 +7°C° 0 mm 2 mps 742 mmHg 96%
    02:00 +7°C° 0 mm 2 mps 742 mmHg 97%
    03:00 +7°C° 0 mm 2 mps 743 mmHg 97%
    04:00 +7°C° 0 mm 2 mps 743 mmHg 97%
    05:00 +7°C° 0 mm 2 mps 743 mmHg 97%
    06:00 +7°C° 0 mm 2 mps 743 mmHg 97%
    07:00 +7°C° 0 mm 2 mps 744 mmHg 97%
    08:00 +7°C° 0 mm 3 mps 744 mmHg 96%
    09:00 +7°C° 0 mm 3 mps 745 mmHg 96%
    10:00 +7°C° 0 mm 4 mps 745 mmHg 92%
    11:00 +8°C° 0 mm 4 mps 745 mmHg 88%
    12:00 +9°C° 0 mm 5 mps 745 mmHg 84%
    13:00 +9°C° 0 mm 5 mps 745 mmHg 86%
    14:00 +9°C° 0 mm 5 mps 745 mmHg 88%
    15:00 +9°C° 0 mm 5 mps 745 mmHg 90%
    16:00 +9°C° 0 mm 5 mps 745 mmHg 91%
    17:00 +8°C° 0 mm 5 mps 745 mmHg 91%
    18:00 +8°C° 0 mm 4 mps 745 mmHg 92%
    19:00 +8°C° 0.3 mm 5 mps 745 mmHg 92%
    20:00 +8°C° 0.3 mm 6 mps 744 mmHg 91%
    21:00 +8°C° 0.3 mm 7 mps 744 mmHg 91%
    22:00 +8°C° 0.4 mm 7 mps 743 mmHg 91%
    23:00 +9°C° 0.4 mm 8 mps 743 mmHg 91%

    25 November, Monday

    Time Temperature Precipitation Wind Pressure Humidity
    00:00 +9°C° 0.4 mm 8 mps 742 mmHg 91%
    01:00 +9°C° 0.6 mm 8 mps 742 mmHg 92%
    02:00 +10°C° 0.6 mm 7 mps 741 mmHg 92%
    03:00 +11°C° 0.6 mm 7 mps 741 mmHg 93%
    04:00 +11°C° 0.3 mm 7 mps 741 mmHg 93%
    05:00 +10°C° 0.3 mm 6 mps 741 mmHg 93%
    06:00 +10°C° 0.3 mm 6 mps 740 mmHg 92%
    07:00 +10°C° 0.1 mm 6 mps 740 mmHg 91%
    08:00 +10°C° 0.1 mm 6 mps 740 mmHg 90%
    09:00 +10°C° 0.1 mm 6 mps 740 mmHg 88%
    10:00 +10°C° 0.1 mm 7 mps 740 mmHg 84%
    11:00 +10°C° 0.1 mm 8 mps 740 mmHg 80%
    12:00 +11°C° 0.1 mm 8 mps 740 mmHg 76%
    13:00 +10°C° 0.1 mm 8 mps 740 mmHg 78%
    14:00 +10°C° 0.1 mm 8 mps 741 mmHg 80%
    15:00 +10°C° 0.1 mm 8 mps 741 mmHg 82%
    16:00 +9°C° 0 mm 8 mps 741 mmHg 83%
    17:00 +9°C° 0 mm 7 mps 741 mmHg 84%
    18:00 +8°C° 0 mm 7 mps 741 mmHg 86%
    19:00 +8°C° 0 mm 7 mps 742 mmHg 86%
    20:00 +8°C° 0 mm 7 mps 742 mmHg 87%
    21:00 +8°C° 0 mm 7 mps 742 mmHg 88%
    22:00 +8°C° 0 mm 6 mps 743 mmHg 89%
    23:00 +7°C° 0 mm 6 mps 743 mmHg 90%

    26 November, Tuesday

    Time Temperature Precipitation Wind Pressure Humidity
    00:00 +7°C° 0 mm 5 mps 743 mmHg 91%
    01:00 +7°C° 0 mm 5 mps 743 mmHg 92%
    02:00 +7°C° 0 mm 5 mps 743 mmHg 93%
    03:00 +6°C° 0 mm 5 mps 744 mmHg 93%
    04:00 +6°C° 0 mm 4 mps 744 mmHg 94%
    05:00 +6°C° 0 mm 4 mps 743 mmHg 94%
    06:00 +6°C° 0 mm 4 mps 743 mmHg 94%
    07:00 +7°C° 0 mm 3 mps 743 mmHg 94%
    08:00 +7°C° 0 mm 3 mps 743 mmHg 93%
    09:00 +7°C° 0 mm 3 mps 743 mmHg 93%
    10:00 +8°C° 0.1 mm 3 mps 742 mmHg 92%
    11:00 +8°C° 0.1 mm 3 mps 741 mmHg 92%
    12:00 +9°C° 0.1 mm 3 mps 740 mmHg 92%
    13:00 +9°C° 0.5 mm 3 mps 739 mmHg 93%
    14:00 +8°C° 0.5 mm 3 mps 738 mmHg 94%
    15:00 +8°C° 0.5 mm 3 mps 737 mmHg 95%
    16:00 +8°C° 0.3 mm 4 mps 737 mmHg 94%
    17:00 +8°C° 0.3 mm 4 mps 736 mmHg 94%
    18:00 +9°C° 0.3 mm 5 mps 736 mmHg 94%
    19:00 +9°C° 0 mm 6 mps 735 mmHg 91%
    20:00 +9°C° 0 mm 7 mps 735 mmHg 88%
    21:00 +7°C° 0 mm 8 mps 735 mmHg 85%
    22:00 +8°C° 0 mm 7 mps 735 mmHg 86%
    23:00 +6°C° 0 mm 7 mps 734 mmHg 87%

    27 November, Wednesday

    Time Temperature Precipitation Wind Pressure Humidity
    00:00 +7°C° 0 mm 6 mps 734 mmHg 88%
    01:00 +5°C° 0 mm 6 mps 734 mmHg 89%
    02:00 +5°C° 0 mm 6 mps 734 mmHg 89%
    03:00 +5°C° 0 mm 6 mps 734 mmHg 90%
    04:00 +6°C° 0 mm 5 mps 734 mmHg 91%
    05:00 +6°C° 0 mm 5 mps 734 mmHg 92%
    06:00 +5°C° 0 mm 4 mps 735 mmHg 93%
    07:00 +6°C° 0 mm 4 mps 735 mmHg 92%
    08:00 +6°C° 0 mm 4 mps 735 mmHg 92%
    09:00 +6°C° 0 mm 4 mps 736 mmHg 92%
    10:00 +7°C° 0 mm 5 mps 737 mmHg 88%
    11:00 +8°C° 0 mm 5 mps 737 mmHg 85%
    12:00 +9°C° 0 mm 6 mps 738 mmHg 82%
    13:00 +9°C° 0 mm 5 mps 738 mmHg 83%
    14:00 +9°C° 0 mm 5 mps 739 mmHg 84%
    15:00 +8°C° 0 mm 4 mps 739 mmHg 85%
    16:00 +8°C° 0 mm 4 mps 740 mmHg 88%
    17:00 +7°C° 0 mm 4 mps 740 mmHg 90%
    18:00 +6°C° 0 mm 4 mps 741 mmHg 92%
    19:00 +6°C° 0 mm 4 mps 741 mmHg 93%
    20:00 +6°C° 0 mm 4 mps 742 mmHg 94%
    21:00 +7°C° 0 mm 3 mps 742 mmHg 94%
    22:00 +6°C° 0.1 mm 4 mps 742 mmHg 94%
    23:00 +6°C° 0.1 mm 4 mps 742 mmHg 94%
    Show more